Regional Weather Roundup
Issued by NWS Goodland, KS

Home | Current Version | Previous Version | Text Only | Print | Product List | Glossary Off
Versions: 1 2 3 4 5 6 7 8 9 10 11 12 13 14 15 16 17 18 19 20 21 22 23 24 25 26 27 28 29 30 31 32 33 34 35 36 37 38 39 40 41 42 43 44 45 46 47 48 49 50

000
ASUS43 KGLD 281608
RWRGLD

GOODLAND FORECAST AREA HOURLY WEATHER ROUNDUP
NATIONAL WEATHER SERVICE GOODLAND KS
1000 AM MDT TUE MAR 28 2017

...OFFICIAL OBSERVATIONS...

CITY           SKY/WX    TMP DP  RH WIND       PRES   REMARKS
GOODLAND KS    LGT RAIN  46  45  96 SE20G26   29.89F FOG
HILL CITY KS   CLOUDY    47  47 100 E10       30.00S FOG
IMPERIAL NEB   LGT RAIN  45  43  93 SE13      29.96R FOG
MCCOOK NEB     CLOUDY    46  45  96 SE14      29.99S FOG
AKRON CO       CLOUDY    46  43  89 SE14      29.87S FOG
BURLINGTON CO  CLOUDY    46  45  96 SE16      29.88F
LIMON CO       CLOUDY    42  42 100 S9        29.86S FOG
$$

...UNOFFICIAL OBSERVATIONS...

CITY           SKY/WX    TMP DP  RH WIND       PRES   REMARKS
NORTON KS      CLOUDY    45  43  93 E8        29.99  FOG
SHARON SPRINGS   N/A     46  45  95 SE12G23     N/A
TRENTON NEB      N/A     45  32  60 E8          N/A
KIT CARSON CO    N/A     46  43  88 MISG        N/A
YUMA CO        DRIZZLE   45  43  93 SE12      29.89S
$$




USA.gov is the U.S. government's official web portal to all federal, state and local government web resources and services.